Date,TemperatureHighF,TemperatureAvgF,TemperatureLowF,DewpointHighF,DewpointAvgF,DewpointLowF,HumidityHigh,HumidityAvg,HumidityLow,PressureMaxIn,PressureMinIn,WindSpeedMaxMPH,WindSpeedAvgMPH,GustSpeedMaxMPH,PrecipitationSumIn
2013-1-1,37.0,27.8,13.0,29.0,18.4,7.0,92,71,60,30.03,29.77,21,4,24,0.00
2013-1-2,28.0,16.6,1.0,18.0,9.7,-6.0,92,78,62,30.30,29.98,22,4,22,0.00
2013-1-3,26.0,9.3,-1.0,20.0,2.0,-6.0,88,76,66,30.30,29.97,10,2,10,0.00
2013-1-4,40.0,31.3,20.0,27.0,21.5,11.0,87,71,54,30.12,29.86,23,3,27,0.00
2013-1-5,38.0,33.4,25.0,28.0,23.4,19.0,89,70,52,30.28,29.93,23,4,25,0.00
2013-1-6,42.0,34.7,26.0,36.0,28.4,22.0,96,81,64,30.27,29.92,19,2,21,0.07
2013-1-7,39.0,29.6,19.0,36.0,24.0,15.0,95,83,67,30.42,30.00,14,3,14,0.01
2013-1-8,42.0,27.7,15.0,30.0,23.5,15.0,100,88,63,30.41,30.31,12,1,14,0.00
2013-1-9,47.0,34.0,20.0,36.0,28.6,20.0,100,84,48,30.45,30.00,31,4,31,0.01
2013-1-10,46.0,38.3,27.0,33.0,27.2,24.0,95,68,56,30.60,30.17,19,5,23,0.00
2013-1-11,41.0,32.9,26.0,39.0,30.6,24.0,100,94,66,30.58,30.09,14,3,15,0.15
2013-1-12,46.0,41.7,38.0,46.0,41.7,38.0,100,100,100,30.17,30.07,13,4,16,0.01
2013-1-13,49.0,44.7,39.0,49.0,44.7,39.0,100,100,100,30.15,29.84,21,5,21,0.02
2013-1-14,49.0,42.9,35.0,49.0,36.5,24.0,100,81,60,30.37,29.84,21,6,22,0.02
2013-1-15,38.0,34.2,31.0,28.0,24.8,22.0,81,72,58,30.39,30.09,12,2,13,0.00
2013-1-16,33.0,31.4,29.0,33.0,30.2,25.0,100,97,79,30.26,29.83,3,0,4,0.00
2013-1-17,38.0,31.0,21.0,38.0,23.7,5.0,100,78,55,30.37,29.86,16,3,18,0.16
2013-1-18,29.0,20.3,14.0,12.0,6.8,-4.0,72,59,39,30.45,30.11,25,4,27,0.00
2013-1-19,45.0,40.2,26.0,30.0,24.6,11.0,67,56,50,30.28,29.58,26,7,28,0.10
2013-1-20,46.0,34.5,21.0,36.0,21.5,11.0,85,62,34,30.09,29.55,32,7,32,0.00
2013-1-21,27.0,22.9,16.0,21.0,14.0,0.0,90,72,50,30.10,29.80,14,3,14,0.00
2013-1-22,22.0,15.4,4.0,18.0,4.7,-5.0,91,67,39,30.23,29.80,25,5,29,0.00
2013-1-23,11.0,6.7,2.0,2.0,-3.7,-7.0,78,65,49,30.26,30.15,21,3,23,0.00
2013-1-24,16.0,8.0,-1.0,4.0,-2.2,-6.0,85,67,44,30.45,30.16,29,4,32,0.00
2013-1-25,18.0,12.3,6.0,13.0,2.6,-3.0,95,69,48,30.46,30.10,14,4,16,0.00
2013-1-26,21.0,14.2,9.0,11.0,6.9,2.0,96,77,52,30.51,30.10,17,3,21,0.00
2013-1-27,29.0,17.4,5.0,10.0,4.2,0.0,96,62,31,30.56,30.38,12,2,15,0.00
2013-1-28,33.0,24.8,16.0,33.0,20.0,6.0,100,85,57,30.53,29.97,12,2,14,0.00
2013-1-29,46.0,33.3,27.0,43.0,33.2,27.0,100,100,98,30.18,29.78,23,2,23,0.42
2013-1-30,59.0,51.7,41.0,59.0,51.5,41.0,100,100,97,30.03,28.85,39,8,40,1.09
2013-1-31,56.0,40.1,26.0,56.0,33.2,9.0,100,80,50,29.79,28.86,29,7,33,1.09
2013-2-1,28.0,24.5,19.0,22.0,12.5,5.0,86,63,51,30.26,29.66,27,7,29,0.00
2013-2-2,28.0,21.5,13.0,18.0,11.0,6.0,94,68,48,30.26,29.98,20,4,23,0.00
2013-2-3,29.0,23.7,18.0,21.0,16.5,13.0,97,78,55,30.07,29.79,14,1,17,0.00
2013-2-4,25.0,22.0,17.0,20.0,14.2,9.0,88,75,56,30.03,29.79,21,4,24,0.00
2013-2-5,29.0,24.3,18.0,25.0,14.9,10.0,96,72,53,30.03,29.87,11,2,12,0.00
2013-2-6,34.0,27.4,16.0,28.0,17.3,3.0,97,71,35,30.51,29.87,29,5,29,0.00
2013-2-7,26.0,20.9,15.0,12.0,7.3,4.0,76,59,45,30.55,30.21,11,3,11,0.00
2013-2-8,30.0,24.3,20.0,28.0,19.6,8.0,100,86,61,30.37,29.82,21,4,22,0.00
2013-2-9,27.0,18.4,4.0,24.0,10.5,-2.0,100,75,49,30.54,29.85,18,6,19,0.00
2013-2-10,35.0,15.0,2.0,13.0,5.6,-2.0,92,71,40,30.56,30.05,23,1,26,0.00
2013-2-11,42.0,34.8,16.0,41.0,31.9,10.0,100,91,59,30.30,29.64,20,6,24,0.20
2013-2-12,39.0,37.5,35.0,36.0,29.7,25.0,96,76,66,29.96,29.69,26,4,26,0.00
2013-2-13,41.0,35.5,30.0,29.0,24.7,20.0,85,68,50,29.91,29.72,11,2,13,0.00
2013-2-14,41.0,33.8,25.0,29.0,24.8,20.0,92,73,58,29.97,29.72,15,1,19,0.00
2013-2-15,50.0,40.7,31.0,33.0,28.6,19.0,99,66,45,30.04,29.88,15,5,16,0.00
2013-2-16,33.0,29.6,22.0,31.0,18.7,8.0,100,68,49,30.03,29.74,22,4,22,0.00
2013-2-17,24.0,19.5,13.0,11.0,5.2,-1.0,69,57,39,30.22,29.68,34,9,37,0.00
2013-2-18,28.0,19.3,10.0,13.0,4.1,-1.0,69,54,36,30.25,29.98,24,5,26,0.00
2013-2-19,44.0,32.3,21.0,38.0,24.5,10.0,100,76,51,30.18,29.62,29,5,35,0.11
2013-2-20,34.0,28.8,26.0,27.0,16.0,9.0,80,62,43,29.98,29.66,29,8,33,0.00
2013-2-21,27.0,21.7,18.0,17.0,12.7,8.0,81,71,64,30.45,29.90,28,8,31,0.00
2013-2-22,37.0,30.0,21.0,27.0,21.2,16.0,86,74,61,30.47,30.14,17,4,23,0.00
2013-2-23,38.0,36.1,34.0,38.0,33.4,26.0,100,92,73,30.25,29.82,10,4,12,0.05
2013-2-24,40.0,35.1,30.0,39.0,32.3,24.0,100,92,67,30.11,29.78,22,4,23,0.07
2013-2-25,42.0,35.7,26.0,35.0,29.4,24.0,100,81,61,30.33,29.99,10,1,13,0.00
2013-2-26,45.0,37.8,28.0,35.0,28.9,24.0,97,74,53,30.33,29.78,17,3,18,0.09
2013-2-27,45.0,37.9,33.0,43.0,36.3,24.0,100,95,57,30.05,29.52,16,3,16,0.76
2013-2-28,44.0,39.2,36.0,42.0,37.6,34.0,100,94,80,29.68,29.54,10,2,11,0.14
2013-3-1,41.0,36.3,31.0,37.0,33.5,25.0,100,91,74,29.79,29.60,18,3,19,0.09
2013-3-2,36.0,31.0,25.0,28.0,24.8,17.0,89,81,68,29.79,29.72,17,5,18,0.00
2013-3-3,32.0,26.7,22.0,26.0,20.8,17.0,94,82,70,29.79,29.70,22,6,26,0.00
2013-3-4,31.0,29.2,26.0,25.0,22.7,21.0,89,80,72,30.06,29.76,29,7,29,0.00
2013-3-5,41.0,33.9,30.0,29.0,26.0,22.0,91,76,62,30.10,29.93,16,5,17,0.00
2013-3-6,44.0,36.9,31.0,35.0,28.8,24.0,93,76,61,30.14,30.04,26,6,27,0.00
2013-3-7,38.0,34.6,30.0,34.0,28.6,23.0,100,82,59,30.18,30.11,18,6,21,0.03
2013-3-8,41.0,33.2,28.0,37.0,29.4,23.0,100,89,65,30.37,30.12,18,6,19,0.13
2013-3-9,52.0,36.6,26.0,28.0,26.2,22.0,93,71,41,30.39,30.29,14,3,14,0.14
2013-3-10,55.0,41.7,24.0,35.0,28.9,22.0,99,67,35,30.39,30.19,19,5,22,0.00
2013-3-11,54.0,46.8,38.0,50.0,39.4,33.0,88,76,60,30.26,29.88,26,8,30,0.00
2013-3-12,55.0,47.9,35.0,55.0,45.8,30.0,100,93,81,30.00,29.67,24,6,25,1.37
2013-3-13,47.0,39.2,32.0,36.0,27.5,14.0,88,67,41,29.89,29.78,19,5,23,0.00
2013-3-14,34.0,27.5,22.0,25.0,14.4,8.0,73,60,52,29.97,29.84,27,8,32,0.00
2013-3-15,39.0,31.5,22.0,32.0,21.4,11.0,94,69,52,29.96,29.65,17,4,20,0.00
2013-3-16,36.0,30.5,21.0,28.0,17.3,12.0,91,61,45,30.09,29.77,14,4,16,0.00
2013-3-17,35.0,28.5,18.0,18.0,10.8,6.0,73,51,35,30.48,29.94,21,5,26,0.00
2013-3-18,39.0,29.2,17.0,31.0,15.3,6.0,100,63,31,30.48,29.88,18,3,19,0.00
2013-3-19,36.0,31.1,21.0,36.0,30.9,21.0,100,100,97,30.09,29.70,16,2,16,0.01
2013-3-20,37.0,29.4,17.0,28.0,22.6,15.0,100,80,51,29.83,29.77,20,3,21,0.08
2013-3-21,36.0,28.7,17.0,24.0,15.6,10.0,99,64,39,29.83,29.65,15,3,19,0.14
2013-3-22,36.0,30.8,21.0,28.0,22.8,13.0,90,76,59,29.84,29.70,23,4,27,0.04
2013-3-23,40.0,35.3,31.0,28.0,23.8,21.0,88,67,50,29.91,29.78,29,7,29,0.10
2013-3-24,44.0,37.6,31.0,27.0,24.5,23.0,83,62,47,29.92,29.70,15,4,16,0.02
2013-3-25,45.0,39.0,31.0,33.0,28.0,25.0,86,68,49,29.78,29.51,15,4,18,0.00
2013-3-26,48.0,40.1,30.0,33.0,26.2,20.0,88,62,36,29.87,29.60,17,3,17,0.00
2013-3-27,51.0,41.7,30.0,36.0,30.3,23.0,90,67,45,30.00,29.84,23,5,25,0.00
2013-3-28,49.0,43.1,38.0,40.0,35.0,30.0,89,74,59,30.14,29.94,19,4,19,0.00
2013-3-29,51.0,44.0,32.0,36.0,33.1,28.0,92,67,47,30.15,30.06,19,4,21,0.00
2013-3-30,55.0,44.7,30.0,37.0,27.2,21.0,92,56,32,30.16,30.06,23,3,24,0.00
2013-3-31,57.0,45.2,29.0,43.0,33.0,25.0,100,68,35,30.13,29.63,27,5,29,0.11
2013-4-1,53.0,40.7,28.0,51.0,32.1,17.0,100,76,43,29.94,29.55,27,6,29,0.02
2013-4-2,36.0,32.5,27.0,26.0,20.1,11.0,93,64,42,30.09,29.88,30,7,31,0.00
2013-4-3,40.0,34.2,27.0,24.0,18.4,13.0,85,56,38,30.37,30.02,26,7,35,0.00
2013-4-4,55.0,45.3,30.0,27.0,23.3,19.0,75,46,29,30.38,29.89,18,5,21,0.00
2013-4-5,53.0,43.0,30.0,31.0,24.4,8.0,76,52,32,30.26,29.78,26,6,26,0.00
2013-4-6,47.0,39.3,30.0,30.0,13.9,6.0,75,39,23,30.32,30.00,18,4,19,0.00
2013-4-7,60.0,49.5,35.0,44.0,33.1,17.0,90,57,29,30.26,29.85,40,8,43,0.02
2013-4-8,63.0,54.5,43.0,51.0,40.0,36.0,90,60,38,30.15,29.82,17,3,17,0.03
2013-4-9,62.0,56.1,49.0,52.0,46.5,40.0,100,72,55,30.05,29.82,24,5,26,0.35
2013-4-10,59.0,51.7,45.0,55.0,50.0,34.0,100,94,75,30.00,29.82,17,4,18,0.66
2013-4-11,46.0,39.0,33.0,46.0,31.6,23.0,100,78,50,30.16,29.88,19,6,19,0.14
2013-4-12,42.0,38.3,33.0,40.0,37.0,27.0,100,96,77,30.14,29.78,16,3,19,0.64
2013-4-13,52.0,45.3,38.0,46.0,40.9,37.0,100,86,68,30.02,29.82,17,2,19,0.01
2013-4-14,48.0,41.6,30.0,40.0,31.3,26.0,96,71,47,30.38,29.93,20,4,22,0.00
2013-4-15,62.0,49.0,30.0,40.0,33.4,27.0,96,59,40,30.39,30.23,24,5,24,0.00
2013-4-16,62.0,55.6,49.0,58.0,46.4,32.0,92,72,52,30.32,30.02,29,9,32,0.22
2013-4-17,66.0,54.1,38.0,47.0,37.4,32.0,90,56,31,30.37,30.16,18,5,19,0.01
2013-4-18,66.0,54.1,38.0,54.0,40.0,34.0,96,62,36,30.37,29.88,30,8,33,0.00
2013-4-19,74.0,62.2,44.0,65.0,58.0,42.0,100,87,71,30.02,29.50,30,9,34,1.07
2013-4-20,54.0,45.4,32.0,45.0,34.1,20.0,100,69,39,30.57,29.73,22,6,24,0.24
2013-4-21,52.0,40.7,32.0,26.0,21.5,18.0,75,50,28,30.73,30.35,14,4,17,0.00
2013-4-22,60.0,46.2,33.0,33.0,25.9,18.0,86,51,25,30.73,30.48,19,4,24,0.00
2013-4-23,55.0,44.9,32.0,42.0,35.6,27.0,94,72,56,30.54,30.05,14,2,17,0.00
2013-4-24,75.0,55.6,36.0,54.0,45.4,35.0,100,72,43,30.15,29.66,25,5,30,0.18
2013-4-25,63.0,49.0,38.0,55.0,34.1,25.0,90,60,30,30.42,29.72,20,5,21,0.18
2013-4-26,58.0,47.1,37.0,41.0,34.0,29.0,92,64,37,30.47,30.27,16,3,18,0.00
2013-4-27,67.0,51.4,35.0,40.0,34.9,27.0,93,59,25,30.47,30.28,12,2,13,0.00
2013-4-28,75.0,58.9,40.0,45.0,38.9,33.0,91,53,26,30.33,30.10,23,4,23,0.00
2013-4-29,61.0,57.3,52.0,52.0,45.4,33.0,96,66,40,30.29,30.16,19,6,19,0.01
2013-4-30,74.0,61.1,50.0,52.0,43.4,30.0,96,57,30,30.44,30.22,16,3,18,0.02
2013-5-1,78.0,63.8,48.0,46.0,36.6,30.0,84,40,21,30.47,30.31,18,3,21,0.00
2013-5-2,84.0,67.3,49.0,49.0,43.8,30.0,84,47,24,30.50,30.25,24,3,26,0.00
2013-5-3,74.0,63.1,53.0,46.0,38.6,30.0,67,42,24,30.50,30.30,14,4,14,0.00
2013-5-4,79.0,64.1,47.0,49.0,44.8,31.0,92,54,27,30.36,30.15,14,3,19,0.00
2013-5-5,76.0,62.0,49.0,47.0,40.8,33.0,84,51,24,30.30,30.12,14,4,17,0.00
2013-5-6,77.0,62.1,48.0,54.0,44.6,27.0,88,58,18,30.26,30.06,17,4,18,0.00
2013-5-7,81.0,68.5,53.0,58.0,54.3,50.0,97,65,35,30.17,30.01,14,3,17,0.00
2013-5-8,75.0,66.2,59.0,66.0,60.5,55.0,97,83,57,30.14,29.96,17,2,21,0.20
2013-5-9,72.0,62.8,55.0,60.0,57.5,53.0,100,85,56,30.00,29.84,12,2,13,0.00
2013-5-10,79.0,68.4,55.0,63.0,57.2,54.0,100,71,45,29.98,29.72,16,4,18,0.07
2013-5-11,71.0,64.1,55.0,68.0,60.8,49.0,100,90,67,29.81,29.63,20,4,23,0.21
2013-5-12,61.0,54.2,43.0,54.0,41.8,27.0,90,66,31,29.95,29.64,24,4,29,0.00
2013-5-13,51.0,46.2,40.0,38.0,31.4,27.0,83,59,46,30.12,29.86,18,4,20,0.00
2013-5-14,59.0,48.1,36.0,38.0,33.6,27.0,97,61,33,30.14,30.01,18,2,18,0.00
2013-5-15,68.0,53.4,36.0,56.0,45.7,35.0,99,77,48,30.06,29.58,24,4,25,0.08
2013-5-16,81.0,66.7,48.0,56.0,45.2,39.0,97,52,26,30.07,29.67,23,4,26,0.00
2013-5-17,71.0,60.2,50.0,47.0,43.3,40.0,82,56,33,30.31,29.86,14,3,15,0.00
2013-5-18,74.0,61.0,46.0,53.0,47.8,41.0,98,66,33,30.32,30.21,17,3,18,0.00
2013-5-19,61.0,58.3,52.0,60.0,56.4,51.0,100,94,80,30.31,30.05,16,4,18,0.09
2013-5-20,83.0,69.1,59.0,68.0,63.3,57.0,100,84,60,30.16,29.89,11,3,11,0.00
2013-5-21,90.0,73.0,63.0,72.0,67.8,63.0,100,86,54,29.95,29.76,24,3,27,1.15
2013-5-22,79.0,71.2,63.0,76.0,69.4,63.0,100,94,81,29.89,29.75,19,5,21,1.37
2013-5-23,76.0,71.4,66.0,73.0,68.6,54.0,100,91,81,29.81,29.64,20,5,24,0.43
2013-5-24,68.0,53.1,45.0,68.0,52.8,45.0,100,99,94,30.01,29.64,20,5,21,1.03
2013-5-25,48.0,45.7,45.0,47.0,45.3,43.0,100,99,92,29.99,29.87,21,6,22,1.44
2013-5-26,59.0,50.4,42.0,47.0,44.4,41.0,100,81,57,30.20,29.87,23,4,26,0.08
2013-5-27,72.0,57.1,41.0,51.0,41.2,33.0,100,63,30,30.24,30.10,19,3,23,0.00
2013-5-28,72.0,58.9,44.0,60.0,50.1,42.0,100,76,39,30.24,30.05,19,4,21,0.46
2013-5-29,80.0,66.2,59.0,74.0,64.5,58.0,100,95,78,30.13,29.89,24,4,29,0.80
2013-5-30,91.0,75.7,63.0,75.0,68.5,63.0,100,82,51,30.11,30.02,14,2,16,0.00
2013-5-31,94.0,80.8,66.0,74.0,69.3,65.0,100,72,42,30.11,29.90,15,3,16,0.00
2013-6-1,91.0,81.5,72.0,76.0,70.0,65.0,80,69,51,29.97,29.78,16,4,23,0.08
2013-6-2,88.0,77.1,65.0,77.0,71.5,63.0,100,84,63,29.85,29.68,23,4,23,0.78
2013-6-3,70.0,64.8,53.0,69.0,55.3,37.0,100,74,40,29.99,29.80,16,4,17,0.00
2013-6-4,73.0,61.5,51.0,49.0,45.6,42.0,77,58,40,30.20,29.95,19,5,22,0.00
2013-6-5,76.0,64.2,51.0,55.0,49.0,43.0,90,60,38,30.23,30.09,11,2,13,0.00
2013-6-6,75.0,64.3,56.0,60.0,55.3,50.0,100,76,45,30.16,29.96,19,4,22,0.56
2013-6-7,60.0,58.3,56.0,60.0,58.3,55.0,100,100,99,30.03,29.71,14,2,14,0.75
2013-6-8,72.0,62.9,55.0,64.0,59.4,55.0,100,89,73,30.16,29.72,15,4,15,0.33
2013-6-9,79.0,66.9,56.0,65.0,58.4,56.0,100,77,48,30.19,30.06,16,2,18,0.00
2013-6-10,66.0,62.3,57.0,66.0,61.8,57.0,100,98,88,30.19,29.71,8,1,9,0.81
2013-6-11,71.0,64.4,60.0,71.0,62.8,56.0,100,95,84,29.86,29.55,18,4,18,1.42
2013-6-12,75.0,65.4,57.0,60.0,56.5,53.0,98,75,49,29.84,29.65,18,4,19,0.00
2013-6-13,60.0,57.9,55.0,60.0,57.8,55.0,100,99,90,29.83,29.65,12,2,13,1.61
2013-6-14,77.0,64.8,56.0,64.0,59.7,56.0,100,85,52,29.95,29.69,14,3,15,0.02
2013-6-15,78.0,67.4,55.0,61.0,52.2,43.0,100,64,30,29.99,29.87,19,3,23,0.00
2013-6-16,74.0,65.9,55.0,66.0,59.1,50.0,100,80,65,29.97,29.68,16,3,17,0.00
2013-6-17,86.0,68.9,60.0,69.0,64.4,58.0,100,87,42,29.93,29.76,33,2,33,0.57
2013-6-18,68.0,61.8,54.0,64.0,58.6,53.0,100,90,70,30.04,29.89,18,3,21,0.01
2013-6-19,74.0,62.5,51.0,56.0,50.7,44.0,100,70,41,30.28,29.96,14,2,14,0.00
2013-6-20,80.0,66.6,50.0,61.0,55.7,50.0,100,72,43,30.29,30.18,13,2,14,0.00
2013-6-21,86.0,74.9,62.0,67.0,58.7,48.0,92,62,32,30.28,30.19,10,2,11,0.00
2013-6-22,85.0,76.1,67.0,69.0,65.7,62.0,90,72,53,30.22,30.06,16,4,17,0.00
2013-6-23,92.0,81.4,72.0,76.0,70.5,65.0,91,71,51,30.13,29.96,21,5,24,0.00
2013-6-24,93.0,77.4,68.0,76.0,71.8,67.0,100,85,51,30.03,29.91,17,2,19,0.58
2013-6-25,91.0,75.9,67.0,77.0,72.2,67.0,100,90,56,29.98,29.73,18,2,19,0.43
2013-6-26,84.0,76.3,71.0,75.0,72.5,69.0,100,89,68,29.81,29.74,10,2,10,0.00
2013-6-27,87.0,77.4,69.0,75.0,72.1,68.0,100,86,57,29.81,29.35,26,2,27,0.76
2013-6-28,82.0,74.5,69.0,75.0,71.2,67.0,100,91,65,29.58,29.35,19,4,27,1.53
2013-6-29,84.0,75.1,69.0,72.0,69.5,67.0,100,85,58,29.77,29.46,19,3,21,0.01
2013-6-30,87.0,74.1,68.0,74.0,71.1,68.0,100,91,61,29.95,29.68,14,2,17,0.13
2013-7-1,78.0,73.3,70.0,77.0,72.8,68.0,100,99,93,30.08,29.90,9,2,10,0.12
2013-7-2,87.0,77.5,68.0,78.0,74.3,68.0,100,91,71,30.16,30.01,18,4,24,0.00
2013-7-3,88.0,81.1,75.0,77.0,75.4,73.0,99,84,67,30.20,30.10,16,5,18,0.00
2013-7-4,93.0,83.1,75.0,78.0,76.3,74.0,100,81,61,30.21,30.06,19,4,21,0.00
2013-7-5,93.0,84.0,77.0,79.0,76.4,73.0,97,80,59,30.16,30.00,18,3,20,0.05
2013-7-6,89.0,82.0,74.0,77.0,73.2,69.0,98,77,54,30.10,30.00,14,2,16,0.00
2013-7-7,90.0,79.0,72.0,79.0,74.3,71.0,99,87,64,30.05,29.89,16,2,20,0.03
2013-7-8,88.0,79.9,72.0,75.0,72.2,69.0,100,79,56,30.06,29.92,16,2,16,1.15
2013-7-9,88.0,78.3,72.0,76.0,73.1,70.0,100,86,57,30.07,29.90,13,2,14,0.25
2013-7-10,86.0,78.6,75.0,80.0,75.9,71.0,100,92,76,29.98,29.74,27,4,31,2.00
2013-7-11,86.0,77.6,69.0,78.0,67.7,61.0,100,74,48,30.08,29.75,16,3,19,0.00
2013-7-12,85.0,75.9,68.0,70.0,66.0,62.0,94,72,57,30.24,29.97,13,4,14,0.00
2013-7-13,82.0,74.9,68.0,76.0,70.8,66.0,100,87,76,30.32,30.17,10,2,11,0.01
2013-7-14,91.0,80.8,73.0,78.0,75.2,73.0,100,85,58,30.33,30.20,12,2,12,0.00
2013-7-15,93.0,84.3,72.0,78.0,73.3,69.0,100,72,52,30.24,30.12,14,3,15,0.00
2013-7-16,95.0,82.9,71.0,77.0,72.4,69.0,96,73,48,30.23,30.13,14,2,15,0.00
2013-7-17,96.0,85.0,73.0,79.0,74.6,69.0,100,74,45,30.21,29.99,14,2,15,0.00
2013-7-18,96.0,86.7,78.0,79.0,76.1,72.0,95,73,48,30.03,29.88,16,3,18,0.00
2013-7-19,98.0,87.7,77.0,79.0,74.4,68.0,94,67,44,29.92,29.67,21,5,21,0.00
2013-7-20,88.0,79.4,66.0,75.0,68.9,63.0,95,71,54,29.92,29.67,24,3,26,0.00
2013-7-21,86.0,75.7,66.0,70.0,66.0,58.0,97,74,49,29.99,29.84,11,2,13,0.00
2013-7-22,88.0,76.7,66.0,73.0,67.7,58.0,100,75,55,30.00,29.64,20,4,24,1.45
2013-7-23,85.0,76.7,72.0,75.0,73.1,65.0,100,90,66,29.81,29.52,12,2,13,1.51
2013-7-24,77.0,70.4,57.0,74.0,61.4,52.0,100,75,55,30.08,29.58,20,4,23,0.00
2013-7-25,75.0,65.3,55.0,60.0,55.2,50.0,91,71,54,30.12,30.02,13,4,13,0.00
2013-7-26,80.0,69.3,61.0,63.0,59.9,56.0,99,73,52,30.08,29.98,14,3,14,0.00
2013-7-27,85.0,72.5,59.0,68.0,63.9,59.0,100,77,49,30.05,29.92,14,3,16,0.00
2013-7-28,74.0,71.5,67.0,73.0,68.9,64.0,100,92,78,30.00,29.91,14,4,15,0.49
2013-7-29,83.0,74.3,63.0,71.0,63.2,57.0,100,71,44,30.15,29.94,13,2,14,0.00
2013-7-30,80.0,69.5,59.0,64.0,60.4,56.0,100,75,46,30.18,30.07,14,2,15,0.00
2013-7-31,81.0,70.4,59.0,66.0,62.1,58.0,99,78,48,30.17,29.94,10,2,11,0.00
2013-8-1,77.0,70.5,65.0,70.0,67.4,63.0,100,90,76,30.02,29.80,20,6,23,0.09
2013-8-2,84.0,73.4,64.0,70.0,63.6,58.0,100,75,43,29.87,29.80,14,3,18,0.00
2013-8-3,82.0,72.6,59.0,66.0,60.1,54.0,97,68,41,29.88,29.80,19,4,19,0.00
2013-8-4,77.0,66.6,58.0,63.0,57.7,54.0,98,75,48,30.04,29.82,21,4,27,0.02
2013-8-5,79.0,70.5,54.0,59.0,51.6,45.0,99,54,35,30.12,29.95,17,4,17,0.00
2013-8-6,81.0,69.0,53.0,62.0,56.0,50.0,100,68,36,30.13,30.05,14,2,15,0.00
2013-8-7,78.0,72.5,67.0,70.0,64.7,60.0,95,77,67,30.14,29.96,18,5,21,0.00
2013-8-8,85.0,77.7,72.0,75.0,72.2,68.0,96,85,67,30.01,29.86,21,6,21,0.85
2013-8-9,80.0,75.2,67.0,78.0,73.9,64.0,100,96,87,29.94,29.75,13,3,18,1.41
2013-8-10,79.0,71.0,55.0,70.0,58.0,45.0,99,67,34,30.11,29.84,23,4,23,0.00
2013-8-11,80.0,67.7,55.0,62.0,57.4,51.0,99,73,45,30.12,29.99,14,2,14,0.00
2013-8-12,82.0,71.9,60.0,67.0,62.8,59.0,100,76,52,30.03,29.77,15,2,17,0.00
2013-8-13,77.0,69.8,57.0,72.0,67.0,54.0,100,91,78,29.89,29.63,14,2,15,1.13
2013-8-14,71.0,64.1,54.0,62.0,56.3,53.0,99,77,60,30.09,29.76,22,4,27,0.00
2013-8-15,76.0,64.9,54.0,60.0,55.5,51.0,100,75,44,30.16,30.01,16,2,17,0.00
2013-8-16,81.0,66.5,55.0,63.0,58.8,54.0,100,80,43,30.29,30.12,13,1,14,0.00
2013-8-17,82.0,68.3,56.0,65.0,60.6,56.0,100,80,44,30.30,30.21,8,1,10,0.00
2013-8-18,76.0,67.6,60.0,68.0,64.1,60.0,100,90,68,30.29,30.07,8,1,8,0.00
2013-8-19,83.0,71.1,63.0,68.0,64.7,58.0,100,83,47,30.10,29.98,13,2,14,0.00
2013-8-20,85.0,73.0,60.0,69.0,65.3,60.0,100,80,48,30.17,30.03,12,2,13,0.00
2013-8-21,89.0,74.8,63.0,71.0,67.7,63.0,100,82,48,30.17,29.96,13,2,13,0.00
2013-8-22,88.0,76.7,68.0,75.0,70.2,64.0,99,82,52,30.03,29.79,18,3,18,0.00
2013-8-23,79.0,70.8,59.0,70.0,60.1,48.0,100,72,38,30.29,29.87,16,3,18,0.00
2013-8-24,80.0,65.5,54.0,60.0,54.7,49.0,100,73,36,30.40,30.16,11,2,12,0.00
2013-8-25,82.0,68.6,53.0,64.0,59.7,53.0,100,77,47,30.40,30.09,13,2,15,0.00
2013-8-26,77.0,70.7,66.0,72.0,67.3,61.0,100,90,74,30.17,29.83,13,3,14,0.37
2013-8-27,84.0,74.4,67.0,75.0,71.4,67.0,100,91,66,29.91,29.83,9,1,9,0.10
2013-8-28,89.0,75.5,67.0,77.0,70.4,66.0,100,87,49,29.98,29.79,14,2,16,0.00
2013-8-29,82.0,73.8,67.0,71.0,68.5,66.0,100,85,65,30.03,29.90,10,2,11,0.00
2013-8-30,86.0,76.4,69.0,73.0,70.7,67.0,97,84,65,29.99,29.75,13,3,14,0.02
2013-8-31,82.0,74.5,71.0,78.0,73.3,71.0,100,96,82,29.82,29.71,18,3,19,1.02
2013-9-1,86.0,76.5,71.0,77.0,73.7,71.0,100,92,72,29.83,29.73,11,1,12,0.25
2013-9-2,82.0,74.1,67.0,77.0,72.3,66.0,100,95,75,29.78,29.63,17,3,19,0.70
2013-9-3,77.0,69.0,64.0,69.0,63.7,57.0,100,85,51,29.93,29.71,17,2,22,0.00
2013-9-4,81.0,70.3,63.0,64.0,60.2,53.0,96,74,40,29.95,29.85,16,3,16,0.00
2013-9-5,72.0,64.5,51.0,64.0,52.1,41.0,93,67,35,30.28,29.86,16,3,17,0.00
2013-9-6,71.0,57.7,46.0,53.0,47.6,39.0,100,74,35,30.29,30.08,12,1,13,0.00
2013-9-7,76.0,64.1,52.0,64.0,56.9,50.0,95,80,49,30.12,29.78,12,2,13,0.00
2013-9-8,73.0,64.7,49.0,66.0,53.4,43.0,98,71,38,30.23,29.78,21,3,21,0.00
2013-9-9,71.0,60.3,46.0,65.0,51.8,46.0,100,76,49,30.25,30.06,14,4,16,0.16
2013-9-10,82.0,72.2,64.0,77.0,70.0,57.0,100,93,79,30.10,29.97,14,4,16,0.35
2013-9-11,94.0,79.9,70.0,84.0,75.6,68.0,100,88,61,30.06,29.88,21,4,21,0.22
2013-9-12,83.0,72.1,68.0,78.0,71.3,65.0,100,98,82,29.93,29.62,14,2,19,1.48
2013-9-13,71.0,62.4,54.0,69.0,61.7,50.0,100,98,80,29.94,29.62,16,2,19,1.03
2013-9-14,63.0,57.0,49.0,53.0,50.5,45.0,94,80,64,30.18,29.86,18,4,18,0.01
2013-9-15,69.0,57.9,45.0,58.0,52.8,45.0,100,85,63,30.20,30.03,12,2,12,0.02
2013-9-16,65.0,56.0,44.0,59.0,53.0,40.0,100,90,70,30.45,30.03,14,3,15,0.16
2013-9-17,65.0,51.6,40.0,49.0,45.2,40.0,100,82,49,30.50,30.32,13,1,15,0.00
2013-9-18,72.0,57.4,43.0,56.0,50.6,43.0,100,82,46,30.35,30.13,9,2,11,0.00
2013-9-19,78.0,61.3,47.0,58.0,53.6,47.0,100,80,41,30.18,30.03,8,1,10,0.00
2013-9-20,80.0,65.4,50.0,63.0,57.9,50.0,100,80,53,30.09,29.89,14,3,15,0.00
2013-9-21,74.0,67.4,61.0,68.0,62.7,56.0,100,86,68,29.97,29.57,26,7,27,0.44
2013-9-22,64.0,59.0,52.0,62.0,51.5,43.0,100,78,54,30.00,29.61,20,4,22,0.28
2013-9-23,62.0,52.1,44.0,46.0,44.0,40.0,91,75,55,30.08,29.92,15,4,17,0.00
2013-9-24,68.0,54.6,40.0,50.0,45.9,40.0,100,75,48,30.07,29.87,16,3,17,0.00
2013-9-25,70.0,58.0,44.0,57.0,51.6,44.0,100,82,54,30.04,29.87,10,2,11,0.00
2013-9-26,67.0,57.5,48.0,57.0,51.1,46.0,100,81,56,30.24,29.97,16,3,17,0.00
2013-9-27,63.0,55.5,46.0,56.0,52.2,46.0,100,90,73,30.37,30.15,10,2,10,0.00
2013-9-28,74.0,59.2,48.0,61.0,54.4,48.0,100,87,53,30.39,30.21,10,2,10,0.00
2013-9-29,75.0,59.6,50.0,64.0,54.0,50.0,100,85,43,30.25,30.05,10,1,11,0.00
2013-9-30,75.0,58.6,49.0,58.0,53.7,49.0,100,87,48,30.10,29.96,8,1,10,0.00
2013-10-1,78.0,62.3,49.0,63.0,56.9,49.0,100,85,55,30.03,29.88,14,2,15,0.00
2013-10-2,79.0,64.4,54.0,66.0,59.0,49.0,100,85,56,30.10,29.89,13,2,15,0.00
2013-10-3,73.0,60.8,49.0,60.0,56.0,49.0,100,87,54,30.13,30.02,10,1,11,0.00
2013-10-4,64.0,60.8,58.0,64.0,60.3,58.0,100,99,94,30.09,30.02,8,2,8,0.38
2013-10-5,64.0,60.4,54.0,61.0,58.8,54.0,100,95,83,30.11,30.05,9,1,10,0.15
2013-10-6,68.0,60.1,54.0,63.0,58.3,54.0,100,94,87,30.11,29.88,16,4,21,0.16
2013-10-7,77.0,64.6,52.0,72.0,62.6,47.0,100,94,75,30.17,29.61,28,5,29,1.29
2013-10-8,66.0,56.0,44.0,55.0,47.1,42.0,100,75,48,30.45,29.95,14,2,14,0.00
2013-10-9,67.0,51.6,42.0,56.0,46.3,42.0,100,85,46,30.50,30.30,9,1,9,0.00
2013-10-10,60.0,53.0,43.0,54.0,49.7,43.0,100,90,66,30.35,30.13,9,1,9,0.00
2013-10-11,72.0,57.8,44.0,59.0,51.8,44.0,100,84,42,30.23,30.08,11,1,11,0.00
2013-10-12,75.0,58.1,43.0,59.0,52.3,43.0,100,83,53,30.39,30.15,16,2,19,0.00
2013-10-13,71.0,59.3,51.0,54.0,51.6,47.0,93,78,51,30.43,30.31,13,3,15,0.00
2013-10-14,69.0,59.0,48.0,60.0,54.7,47.0,100,87,62,30.36,30.23,13,1,13,0.00
2013-10-15,72.0,63.1,57.0,62.0,58.6,45.0,100,86,70,30.27,30.06,12,2,13,0.00
2013-10-16,65.0,60.8,54.0,61.0,54.8,45.0,96,81,67,30.11,29.81,14,4,16,0.00
2013-10-17,72.0,63.6,55.0,64.0,56.3,51.0,100,80,50,29.88,29.55,16,3,18,0.09
2013-10-18,67.0,56.8,44.0,64.0,48.9,39.0,100,77,39,29.95,29.55,15,3,18,0.10
2013-10-19,66.0,55.0,43.0,52.0,46.2,40.0,100,75,44,29.95,29.68,19,4,20,0.00
2013-10-20,60.0,52.4,44.0,53.0,41.6,36.0,91,69,42,30.08,29.68,17,3,17,0.00
2013-10-21,68.0,56.0,44.0,49.0,43.3,40.0,95,65,41,30.11,29.78,19,5,20,0.00
2013-10-22,57.0,50.9,38.0,51.0,44.3,37.0,98,79,58,29.90,29.76,16,4,16,0.00
2013-10-23,53.0,44.5,37.0,42.0,37.9,34.0,100,80,55,29.82,29.61,13,2,13,0.00
2013-10-24,52.0,44.9,35.0,40.0,34.3,27.0,100,71,42,30.04,29.72,20,4,21,0.00
2013-10-25,50.0,42.8,37.0,40.0,35.9,31.0,96,78,54,30.18,29.94,17,3,19,0.01
2013-10-26,53.0,45.4,37.0,39.0,35.3,30.0,97,71,43,30.16,29.79,19,4,23,0.00
2013-10-27,52.0,45.5,35.0,39.0,35.8,30.0,100,71,47,30.11,29.79,20,3,23,0.00
2013-10-28,56.0,43.5,32.0,41.0,33.8,24.0,100,72,41,30.45,30.08,19,4,21,0.00
2013-10-29,47.0,37.1,29.0,33.0,26.5,22.0,86,70,40,30.50,30.30,12,1,13,0.00
2013-10-30,53.0,41.3,35.0,42.0,36.7,28.0,100,85,66,30.36,30.14,6,1,7,0.00
2013-10-31,66.0,53.1,35.0,63.0,52.8,35.0,100,99,96,30.24,29.40,29,6,35,0.27
2013-11-1,72.0,64.1,51.0,66.0,55.3,41.0,99,76,44,29.69,29.35,23,7,26,0.06
2013-11-2,61.0,49.0,39.0,52.0,44.8,26.0,100,86,63,30.11,29.59,20,3,23,0.01
2013-11-3,43.0,37.4,24.0,38.0,24.9,17.0,93,64,44,30.67,29.83,19,6,21,0.00
2013-11-4,41.0,32.5,23.0,28.0,20.8,16.0,94,67,39,30.70,30.50,16,2,16,0.00
2013-11-5,53.0,43.5,28.0,43.0,34.7,24.0,93,73,57,30.69,30.38,17,3,19,0.00
2013-11-6,59.0,54.4,47.0,54.0,46.9,41.0,89,76,65,30.47,29.76,25,7,27,0.09
2013-11-7,58.0,49.5,40.0,56.0,44.6,36.0,99,84,68,29.95,29.76,19,5,20,0.60
2013-11-8,44.0,39.0,32.0,37.0,32.2,24.0,90,79,49,30.25,29.89,30,4,33,0.00
2013-11-9,46.0,40.5,30.0,34.0,30.0,24.0,92,69,55,30.26,29.80,14,3,16,0.00
2013-11-10,52.0,45.9,41.0,41.0,35.6,28.0,88,68,53,30.15,29.76,20,5,24,0.01
2013-11-11,50.0,45.4,34.0,38.0,32.8,23.0,92,63,51,30.18,29.91,19,4,23,0.00
2013-11-12,47.0,32.3,28.0,38.0,22.5,14.0,92,70,59,30.37,29.93,24,5,24,0.00
2013-11-13,36.0,30.4,23.0,22.0,17.9,12.0,75,63,42,30.40,30.13,19,3,19,0.00
2013-11-14,52.0,39.9,30.0,27.0,22.7,19.0,71,54,36,30.20,30.07,16,3,18,0.00
2013-11-15,57.0,43.5,32.0,32.0,25.2,20.0,72,53,30,30.28,30.10,12,2,13,0.00
2013-11-16,62.0,50.2,40.0,43.0,36.7,27.0,78,61,40,30.32,30.18,19,2,20,0.00
2013-11-17,64.0,54.9,49.0,62.0,52.9,41.0,100,93,75,30.25,29.46,32,7,32,0.43
2013-11-18,64.0,56.3,43.0,62.0,41.9,25.0,100,61,34,29.97,29.46,22,7,25,0.45
2013-11-19,44.0,36.1,25.0,32.0,23.0,16.0,81,62,52,30.61,29.77,23,6,24,0.00
2013-11-20,38.0,30.1,23.0,21.0,18.5,16.0,88,66,45,30.68,30.42,16,2,16,0.00
2013-11-21,45.0,36.1,20.0,36.0,27.4,18.0,99,74,54,30.68,30.19,16,2,19,0.02
2013-11-22,49.0,43.5,40.0,49.0,41.6,25.0,100,94,69,30.38,29.88,24,2,27,0.06
2013-11-23,46.0,34.3,23.0,39.0,24.9,5.0,94,72,45,30.10,29.86,31,8,32,0.00
2013-11-24,26.0,20.3,14.0,17.0,6.4,3.0,80,58,40,30.46,29.95,26,6,31,0.00
2013-11-25,33.0,26.6,14.0,17.0,12.6,4.0,76,58,51,30.47,30.22,21,4,23,0.00
2013-11-26,36.0,32.8,28.0,35.0,29.2,16.0,100,89,52,30.32,29.41,13,4,14,0.76
2013-11-27,40.0,35.5,25.0,40.0,34.0,15.0,100,95,70,30.07,29.40,31,4,31,1.23
2013-11-28,33.0,25.4,20.0,27.0,15.9,10.0,93,71,51,30.59,29.65,21,5,26,0.00
2013-11-29,32.0,24.9,17.0,21.0,16.4,10.0,93,74,46,30.84,30.49,15,2,17,0.00
2013-11-30,32.0,26.2,13.0,27.0,15.1,10.0,95,67,46,30.84,30.25,21,4,21,0.00
2013-12-1,41.0,35.1,29.0,34.0,30.2,23.0,96,85,71,30.38,29.98,7,1,10,0.00
2013-12-2,40.0,35.3,29.0,36.0,33.3,29.0,100,94,84,30.04,29.90,10,1,10,0.00
2013-12-3,43.0,34.1,25.0,40.0,31.7,25.0,100,93,71,30.15,29.92,15,2,16,0.00
2013-12-4,44.0,33.2,25.0,37.0,29.5,25.0,100,89,63,30.18,30.02,10,0,10,0.00
2013-12-5,56.0,47.7,30.0,56.0,47.2,28.0,100,98,89,30.17,29.88,19,5,21,0.23
2013-12-6,54.0,40.4,33.0,54.0,37.4,31.0,100,89,77,30.26,29.91,17,4,20,0.26
2013-12-7,37.0,33.2,29.0,34.0,26.6,19.0,100,80,61,30.60,30.17,22,4,24,0.04
2013-12-8,31.0,29.1,26.0,25.0,21.7,19.0,92,78,67,30.63,30.21,14,2,14,0.00
2013-12-9,37.0,32.5,27.0,37.0,31.3,21.0,100,97,72,30.45,29.92,18,5,20,0.01
2013-12-10,36.0,29.1,21.0,35.0,24.9,11.0,100,87,55,30.20,29.86,24,3,24,0.00
2013-12-11,32.0,26.1,21.0,24.0,16.6,8.0,96,71,53,30.35,30.05,14,4,16,0.00
2013-12-12,26.0,20.3,16.0,18.0,8.4,1.0,85,63,45,30.38,30.00,21,4,22,0.00
2013-12-13,28.0,20.6,8.0,24.0,10.7,0.0,94,69,57,30.58,30.00,19,5,19,0.00
2013-12-14,19.0,11.0,8.0,11.0,5.8,0.0,98,83,67,30.64,29.61,13,3,13,0.00
2013-12-15,31.0,23.5,12.0,29.0,20.6,10.0,100,92,56,30.04,29.56,20,2,23,0.00
2013-12-16,27.0,17.7,3.0,25.0,10.7,-3.0,97,78,56,30.28,29.77,14,2,16,0.00
2013-12-17,14.0,7.6,-1.0,12.0,5.6,-3.0,98,96,90,30.28,30.00,5,0,5,0.00
2013-12-18,28.0,21.7,10.0,25.0,19.0,8.0,99,94,88,30.12,30.00,10,2,11,0.00
2013-12-19,39.0,32.2,24.0,31.0,25.8,22.0,98,81,62,30.12,29.98,15,3,16,0.00
2013-12-20,47.0,39.9,31.0,39.0,33.8,28.0,92,80,67,30.10,29.88,13,2,14,0.32
2013-12-21,50.0,44.6,35.0,48.0,40.5,32.0,100,87,66,29.94,29.73,10,2,11,0.21
2013-12-22,62.0,38.7,32.0,62.0,38.6,32.0,100,100,94,30.04,29.58,21,2,25,0.07
2013-12-23,46.0,38.2,27.0,46.0,35.6,19.0,100,92,72,30.24,29.94,19,2,24,0.24
2013-12-24,35.0,27.0,14.0,28.0,17.8,2.0,82,71,61,30.56,30.15,18,4,21,0.00
2013-12-25,28.0,18.0,11.0,19.0,7.2,2.0,79,66,56,30.61,30.29,16,4,17,0.00
2013-12-26,31.0,26.8,22.0,26.0,21.2,11.0,99,84,58,30.42,30.13,19,4,22,0.00
2013-12-27,36.0,29.7,22.0,26.0,23.4,18.0,99,81,66,30.32,30.11,11,2,13,0.00
2013-12-28,47.0,33.7,28.0,33.0,27.7,24.0,100,83,58,30.23,29.96,16,3,17,0.00
2013-12-29,41.0,35.5,28.0,38.0,33.2,26.0,100,93,72,30.05,29.58,16,3,17,1.07
2013-12-30,35.0,23.1,11.0,35.0,16.3,6.0,100,78,59,30.27,29.65,24,4,24,0.02
2013-12-31,24.0,18.2,11.0,20.0,10.5,6.0,95,76,56,30.35,30.04,17,3,19,0.00
2014-1-1,24.0,18.6,7.0,16.0,11.4,1.0,100,77,58,30.42,30.24,15,3,16,0.00
2014-1-2,19.0,1.5,-4.0,15.0,0.3,-6.0,100,98,90,30.37,29.92,19,7,23,0.00